GEFSSGP_850_meantemp_090.txt.gz
Temperature
21 20 20 21 26 29 29 30 30 30 29 28 28 28 28 28 27 26 22 22 21 20 19 20 20 20 20 20 19 19 19 19 19 19 19 19 18 18 18 18 18 18 18 18 18 18 18 18 18
20 20 21 25 29 29 29 30 30 30 29 27 27 27 27 27 25 23 21 21 20 20 19 19 20 20 20 20 20 19 19 19 19 19 19 19 18 18 18 18 18 18 18 18 18 18 18 18 18
20 21 24 28 29 30 30 30 30 29 28 27 27 27 27 26 23 22 21 20 20 20 19 19 20 19 19 19 19 19 19 19 19 19 19 19 18 18 18 18 18 18 18 18 18 18 18 18 18
21 23 26 29 30 30 30 31 30 30 28 27 27 27 25 22 22 21 20 20 20 19 19 19 20 19 19 19 19 19 19 19 19 19 19 18 18 18 18 18 18 18 18 18 18 18 18 18 18
22 26 29 30 30 31 31 30 30 30 29 28 27 28 25 21 21 21 20 20 20 20 19 19 19 19 19 19 19 19 19 19 19 18 18 18 18 18 18 18 18 18 18 18 18 18 18 18 18
26 28 30 30 30 30 31 30 30 30 29 28 27 27 25 21 20 20 20 20 20 20 19 18 19 19 19 19 19 19 19 19 19 18 18 18 18 18 18 18 18 18 18 18 18 18 18 18 18
27 29 30 30 30 30 31 30 30 30 30 28 27 27 25 21 20 20 20 20 20 20 19 18 18 19 19 19 19 19 19 19 19 18 18 18 18 18 18 18 18 18 18 18 18 17 17 17 17
26 29 30 30 30 30 31 30 29 29 29 27 26 27 26 21 20 20 20 20 20 19 19 18 18 18 18 18 19 19 19 19 18 18 18 18 18 18 18 17 18 18 18 18 18 18 17 17 17
25 29 30 30 30 31 31 30 29 28 28 26 25 25 24 21 20 19 19 19 19 19 19 19 18 18 18 18 18 18 18 18 18 18 18 18 17 17 17 17 18 18 18 18 18 18 18 17 17
27 30 30 31 31 31 30 30 30 29 28 27 26 23 21 20 19 19 19 19 19 19 19 18 19 18 18 18 18 18 18 18 17 17 17 17 17 17 17 17 18 17 17 18 18 18 18 17 17
28 30 31 31 30 30 30 30 29 29 29 28 27 24 20 20 20 19 20 20 19 19 18 18 18 18 18 18 18 18 18 18 17 17 17 17 17 17 17 17 17 17 17 17 17 17 17 17 17
29 30 30 30 30 30 30 30 29 29 28 26 25 23 21 20 20 20 20 19 19 18 18 18 18 18 18 18 18 18 18 18 18 17 18 17 17 17 17 17 17 17 17 17 17 17 17 17 17
29 30 30 30 30 30 29 29 29 28 26 25 24 23 21 20 20 20 19 19 19 18 18 18 18 18 18 18 18 18 18 18 18 17 18 17 17 17 17 17 17 17 17 17 17 16 16 16 16
30 30 30 30 30 29 30 30 29 27 26 25 24 22 21 21 20 19 19 18 18 18 18 18 18 18 18 18 18 18 18 18 18 17 17 17 17 17 17 17 17 17 17 17 17 17 16 17 17
29 30 31 31 30 30 30 30 29 26 25 24 23 22 21 20 19 19 18 18 18 18 17 18 18 18 18 18 18 18 18 18 17 17 17 17 17 17 17 17 17 17 17 17 17 16 16 17 17
30 30 31 31 31 30 30 30 28 25 25 24 23 22 20 19 19 18 18 18 17 17 17 18 18 18 18 18 18 17 17 17 17 17 17 17 17 17 17 17 17 16 16 16 16 17 17 17 17
30 30 30 31 31 30 30 30 28 25 25 24 23 22 20 19 18 18 18 17 17 17 17 17 17 18 17 18 18 17 17 17 17 17 17 17 17 17 17 17 16 16 16 16 17 17 17 17 17
29 30 30 30 31 30 30 30 28 26 25 24 23 22 20 19 19 18 17 17 17 17 17 17 17 17 17 17 17 17 17 17 17 17 17 17 16 16 16 16 16 16 16 16 16 16 16 16 16
29 29 29 30 30 30 30 29 28 26 25 24 23 22 21 20 19 18 17 17 17 17 17 17 17 17 17 17 17 17 17 17 17 16 17 16 16 16 16 16 16 16 16 16 16 16 16 16 16
29 29 30 30 30 29 29 29 29 26 25 24 23 22 21 20 19 18 17 17 17 17 17 17 17 17 17 17 17 17 17 17 16 16 17 16 16 16 16 16 16 16 16 15 15 15 17 17 16
29 29 29 29 30 29 29 29 28 27 25 24 23 22 22 21 19 18 17 17 17 17 17 17 17 17 17 17 17 17 17 17 16 16 16 16 16 16 16 16 16 15 16 16 15 15 16 17 16
29 30 29 29 29 30 29 28 29 28 26 25 24 22 22 21 19 18 17 17 17 17 17 17 17 17 17 17 17 17 17 17 17 16 16 16 16 16 16 15 15 15 16 15 16 15 16 16 17
29 29 29 29 29 29 29 28 30 28 27 27 25 23 22 21 20 18 17 17 17 16 16 16 17 17 17 17 17 17 17 17 17 16 16 16 16 16 16 15 15 15 15 15 15 15 15 16 16
29 28 28 29 29 28 29 28 29 29 28 27 26 23 22 20 19 18 17 17 16 16 16 16 16 16 17 17 16 17 16 16 17 16 16 16 16 16 16 15 15 15 15 15 15 15 15 15 16
28 28 28 28 28 28 28 28 29 29 28 27 26 23 22 20 19 18 17 17 16 16 16 16 16 17 17 17 17 17 17 16 17 17 16 16 16 16 16 16 16 15 15 15 15 15 15 15 15
29 29 27 27 28 29 29 28 29 29 27 26 25 24 22 21 20 19 18 17 17 17 16 16 16 17 17 17 17 17 17 16 16 16 16 16 16 16 16 16 16 16 15 15 15 15 15 15 15
29 29 30 29 28 28 29 29 29 28 27 26 25 23 22 21 20 19 18 18 17 17 17 17 17 17 17 17 17 17 17 16 16 16 16 16 16 16 16 16 16 16 16 15 16 15 15 15 15
29 30 29 28 27 27 28 29 29 29 28 27 26 24 23 21 21 20 19 18 18 17 17 17 17 17 17 17 17 16 17 17 16 16 16 16 16 16 16 16 16 16 16 16 16 15 15 15 15
28 28 28 29 28 27 27 29 30 29 28 27 26 24 23 22 21 20 19 19 18 17 17 17 17 17 17 17 16 16 16 16 16 16 16 16 16 16 16 16 16 16 16 16 16 15 15 15 15
29 29 28 27 27 27 28 29 30 29 29 28 27 24 23 22 21 20 20 19 18 18 17 17 17 17 17 17 17 16 16 16 16 16 16 16 16 16 16 16 16 16 16 16 15 15 15 15 15

GEFSSGP_850_meantemp_096.txt.gz
Temperature
24 23 23 23 25 25 28 32 32 32 31 31 31 31 30 28 27 24 24 24 23 22 22 22 21 21 20 20 20 19 19 19 19 19 19 19 18 18 18 18 18 18 18 18 18 18 18 18 18
24 23 24 26 25 27 30 32 32 32 31 31 31 30 29 28 27 26 25 24 22 22 22 22 21 21 20 20 20 19 19 19 19 19 19 18 18 18 18 18 18 18 18 18 18 18 18 18 18
24 24 26 28 27 29 31 32 32 32 31 31 31 30 28 27 27 26 25 23 22 21 21 22 21 21 20 20 20 19 19 19 19 19 18 18 18 18 18 18 18 18 18 18 18 18 18 18 18
23 26 27 28 29 32 33 33 33 32 32 31 30 29 28 27 26 25 24 23 22 21 21 21 21 21 20 20 20 19 19 19 19 19 18 18 18 18 18 18 18 18 18 18 18 18 18 18 18
25 27 27 28 30 33 34 33 33 32 31 31 30 28 26 25 25 25 24 23 22 20 21 21 21 20 20 20 20 19 19 19 19 19 18 18 18 18 18 18 18 18 18 18 18 18 18 18 18
28 29 28 29 30 33 34 33 33 32 31 31 30 29 26 25 25 24 24 23 22 20 20 21 21 20 20 20 19 19 19 19 19 18 18 18 18 18 18 18 18 18 18 18 18 18 18 18 18
28 29 29 30 31 33 34 33 33 32 32 31 30 29 26 25 24 24 24 23 22 20 20 21 20 20 20 19 19 19 19 19 19 19 18 18 18 18 18 18 18 18 18 18 18 18 18 18 18
29 30 29 31 32 33 34 33 33 32 31 30 30 29 26 25 24 24 23 23 22 20 20 20 20 20 20 19 19 19 19 19 19 19 19 19 19 18 18 18 18 18 18 18 18 18 18 18 18
29 30 29 31 32 33 34 33 33 32 30 29 28 27 26 24 24 23 23 23 22 20 20 19 19 19 19 19 19 19 19 19 19 19 19 19 18 18 18 18 18 18 18 18 18 18 18 18 18
31 30 31 33 34 34 34 33 33 32 30 28 27 26 25 24 24 23 23 22 22 21 20 20 19 19 18 18 19 19 19 19 19 18 19 18 18 18 18 18 18 18 18 18 18 18 18 18 18
32 32 33 34 34 34 34 33 33 32 30 28 27 26 25 24 24 23 23 22 22 21 20 20 19 19 19 19 19 18 18 19 18 18 18 18 18 18 18 18 18 18 18 18 18 18 18 18 18
32 33 33 33 33 33 33 33 33 32 30 29 28 26 24 24 23 23 23 22 22 21 21 20 20 19 19 19 19 19 18 19 18 18 18 18 18 18 18 18 18 18 18 18 18 18 18 18 18
33 33 33 33 33 33 33 32 31 31 30 29 28 26 25 24 23 23 23 22 22 21 20 20 19 19 19 19 19 19 19 19 19 19 18 18 18 18 18 18 18 18 18 18 18 18 18 18 18
33 33 33 33 33 33 33 31 30 28 29 29 28 26 25 24 23 23 22 22 21 20 20 20 19 19 19 19 19 19 19 19 19 19 18 18 18 18 18 18 18 18 18 18 18 18 18 18 18
33 33 33 33 33 34 33 31 29 29 29 29 28 26 25 24 23 22 22 21 21 20 20 19 19 19 19 19 19 19 19 19 19 19 18 18 18 18 18 18 18 18 18 18 18 18 18 18 18
32 32 31 32 33 34 33 30 30 29 29 29 28 26 25 23 23 22 21 21 21 20 19 19 18 19 19 19 19 19 19 19 19 18 18 18 18 18 18 18 18 18 18 18 18 18 18 18 18
31 31 31 32 33 34 33 31 30 30 30 29 27 26 25 23 22 22 21 20 20 19 19 19 18 18 19 19 19 19 19 19 19 18 18 18 18 18 18 18 18 18 18 18 18 18 18 18 18
30 31 31 31 33 34 33 32 32 31 30 29 27 26 24 23 22 21 21 20 19 19 19 18 18 18 18 18 19 19 19 19 18 18 18 18 18 18 18 18 18 18 18 18 18 18 18 18 18
32 32 32 32 34 33 32 32 32 31 30 29 27 26 24 23 22 21 20 19 19 18 18 18 18 18 18 18 18 18 18 18 18 18 18 18 18 18 18 17 18 18 18 18 18 17 17 18 18
32 31 32 32 33 33 32 32 32 30 29 29 27 26 24 23 22 21 20 19 19 18 18 18 18 18 18 18 19 18 18 18 18 18 18 17 17 17 18 17 17 18 17 17 17 17 17 18 18
31 31 31 32 32 33 32 30 30 29 29 28 28 26 25 24 22 21 20 19 19 18 18 18 18 18 18 18 18 18 18 18 18 18 17 17 17 17 17 17 17 17 17 17 17 17 17 17 18
31 32 32 32 31 31 31 29 28 28 28 27 28 27 25 24 22 21 20 19 19 18 18 18 18 18 18 18 18 18 18 18 18 18 17 17 17 17 17 17 17 17 17 17 17 17 17 17 18
31 33 32 32 31 30 30 29 28 28 27 28 28 27 26 24 23 21 20 19 19 18 18 18 18 17 17 17 18 18 18 18 18 17 17 17 17 17 17 17 17 17 17 17 17 17 17 17 17
32 32 31 31 30 28 28 28 28 29 29 29 29 27 26 24 23 21 20 20 19 18 18 18 17 17 17 17 17 17 17 18 17 17 17 17 17 17 17 16 17 17 17 16 16 16 17 17 17
32 30 29 28 28 27 26 26 28 31 31 31 29 27 26 24 23 21 20 19 19 18 18 18 17 17 17 17 17 17 17 17 18 17 17 17 17 17 17 17 17 16 16 16 16 16 16 17 17
31 30 28 27 27 26 25 25 27 31 31 30 29 27 26 24 23 22 21 20 19 18 18 18 17 17 17 17 17 17 17 17 17 17 17 17 17 17 17 17 17 16 16 16 16 16 16 16 16
30 31 31 30 29 27 26 27 29 30 30 30 29 27 26 25 23 22 21 20 19 18 18 18 17 17 17 17 17 17 17 17 17 17 17 17 17 17 17 17 17 16 16 16 16 16 16 16 16
32 31 31 29 27 27 28 28 27 27 27 28 28 27 26 25 24 22 21 20 19 18 18 17 17 17 17 17 17 17 17 17 17 17 17 17 17 17 17 17 16 16 16 16 16 16 16 16 16
31 31 30 30 29 28 27 27 28 26 25 26 28 27 26 25 24 23 21 20 19 19 18 17 17 17 17 17 17 17 17 17 17 17 17 17 17 17 17 16 16 16 16 16 16 16 16 16 16
31 31 30 28 28 29 28 28 29 27 27 27 28 28 26 25 24 23 22 21 20 19 18 18 17 17 17 17 17 17 17 17 17 17 17 17 17 17 17 16 16 16 16 16 16 16 16 16 16

GEFSSGP_850_meantemp_102.txt.gz
Temperature
23 22 21 21 20 20 22 25 27 27 27 27 27 26 25 24 23 22 22 22 22 22 21 21 20 20 20 20 20 20 19 19 19 19 19 19 19 19 19 19 19 19 18 18 18 18 18 18 18
23 22 22 21 20 21 23 26 27 28 28 27 26 25 25 24 23 22 21 22 22 22 21 21 20 20 20 20 20 19 19 19 19 19 19 19 19 19 18 18 18 18 18 18 18 18 18 18 18
23 22 22 19 20 21 24 26 27 28 28 27 26 25 24 24 23 22 22 22 22 22 21 21 20 20 20 20 20 19 19 19 19 19 19 19 18 18 18 18 18 18 18 18 18 18 18 18 18
23 22 22 20 21 23 25 26 27 27 28 27 25 24 24 24 24 23 23 22 22 22 21 21 21 20 20 20 19 19 19 19 19 19 18 18 18 18 18 18 18 18 18 18 18 18 18 18 17
23 22 20 20 22 25 27 28 28 27 27 26 24 23 23 23 24 23 22 22 22 21 21 21 21 20 20 20 20 19 19 19 19 18 18 18 18 18 18 18 18 18 18 18 18 18 18 18 17
23 21 20 21 23 27 28 28 28 27 26 25 24 22 22 23 23 22 22 21 22 21 21 21 20 20 20 20 19 19 19 19 19 18 18 18 18 18 18 18 18 18 18 18 18 18 18 17 17
23 21 21 23 24 27 28 29 28 26 26 25 24 21 21 21 22 22 21 21 21 21 21 20 20 20 20 20 20 19 19 19 19 19 18 18 18 18 18 18 18 18 18 18 18 18 18 17 17
25 21 22 23 25 27 29 29 29 27 26 26 25 22 21 21 21 21 20 20 20 21 21 20 20 20 20 20 19 19 19 19 19 18 18 18 18 18 18 18 18 18 18 18 18 18 18 18 17
26 22 21 23 26 28 29 29 28 28 27 26 25 25 24 22 21 20 20 20 20 20 20 20 20 20 20 19 19 19 19 19 19 19 18 18 18 18 18 18 18 18 18 18 18 18 18 18 17
25 21 23 26 27 28 29 29 28 27 25 24 24 24 23 22 21 20 20 20 20 20 20 20 20 20 20 19 19 19 19 19 19 19 18 18 18 18 18 18 18 18 18 18 18 18 18 18 17
25 24 26 27 29 29 29 28 28 27 25 25 24 23 22 22 21 20 20 20 20 20 20 20 20 20 20 19 19 19 19 19 19 18 18 18 18 18 18 18 18 18 18 18 18 18 18 18 18
26 26 28 29 30 29 29 28 27 27 27 27 26 24 23 22 21 20 20 20 20 20 20 20 20 19 19 20 20 19 19 19 19 18 18 18 18 18 18 18 18 18 18 18 18 18 18 18 18
26 27 29 29 29 29 29 28 27 27 27 26 25 24 23 22 21 21 20 20 20 20 20 19 19 19 19 19 19 19 19 19 19 18 18 18 18 18 18 18 18 18 18 18 18 18 18 18 18
27 28 28 29 29 29 28 27 26 26 26 25 24 23 23 22 22 21 20 20 20 20 19 19 19 19 19 19 19 19 19 19 18 18 18 18 18 18 18 18 18 18 18 18 18 18 18 17 17
28 26 26 28 29 29 28 26 26 27 26 24 23 23 22 22 22 21 20 20 20 19 19 19 19 19 19 19 19 19 19 18 18 18 18 18 18 18 18 18 18 18 18 18 18 17 17 17 17
26 25 25 27 28 28 27 26 26 26 25 24 23 22 22 22 22 21 21 20 20 19 19 19 18 18 19 19 19 19 19 19 18 18 18 18 18 18 18 18 18 18 18 17 17 17 17 17 17
24 24 24 26 28 28 27 25 26 26 25 23 23 22 22 21 21 21 21 20 20 20 19 19 19 19 18 18 19 19 19 19 19 18 18 18 18 18 18 18 18 18 18 17 17 17 17 17 17
23 24 25 26 28 28 26 25 25 25 25 23 23 22 22 21 21 21 21 20 20 20 19 19 19 19 18 18 18 18 19 18 18 18 18 18 18 18 18 18 18 18 17 17 17 17 17 17 17
25 25 25 26 28 27 26 25 25 25 24 23 23 22 21 21 21 21 20 20 20 19 19 19 19 19 19 18 18 18 18 18 18 18 18 18 18 18 18 18 18 17 17 17 17 17 17 17 17
25 25 25 26 28 27 26 25 24 24 24 23 23 22 21 21 20 20 20 20 20 19 19 19 19 19 18 18 18 18 18 18 18 18 18 18 18 18 17 17 17 17 17 17 17 17 17 17 17
25 25 25 26 26 26 25 23 23 23 23 23 22 22 21 21 21 20 20 20 19 19 19 19 19 19 18 18 18 18 18 18 18 18 18 18 17 17 17 17 17 17 17 17 17 17 17 17 17
25 26 27 27 25 23 24 22 22 22 22 22 22 21 21 21 20 20 20 20 19 19 19 19 19 18 18 18 18 18 18 18 18 18 18 18 17 17 17 17 17 17 17 17 17 17 17 17 17
26 27 27 27 25 22 22 22 21 21 21 21 21 21 21 21 21 20 20 20 19 19 19 19 18 18 18 18 18 18 18 18 18 18 18 17 17 17 17 17 17 17 17 17 17 17 17 17 17
28 27 25 22 20 21 22 22 21 20 21 21 21 21 21 21 20 20 20 20 19 19 19 18 18 18 18 18 18 18 18 18 18 17 17 17 17 17 17 17 17 17 17 17 17 17 17 17 17
26 23 21 22 20 20 21 21 20 21 21 21 21 21 21 21 20 20 20 19 19 19 18 18 18 17 17 17 17 17 17 18 18 18 18 17 17 17 17 17 17 17 17 16 16 16 17 17 17
25 22 21 22 21 20 21 21 20 22 22 22 21 21 21 20 20 20 20 19 19 19 18 18 18 17 17 17 17 17 17 17 17 18 17 17 17 17 17 17 17 17 17 17 16 16 16 16 17
26 24 21 20 21 20 20 21 21 21 21 21 21 20 20 20 20 20 20 19 19 19 18 18 18 17 17 17 17 17 17 17 17 17 17 17 17 17 17 17 17 17 17 16 16 16 16 16 16
26 24 20 20 21 21 21 21 20 21 20 20 20 20 20 20 20 20 19 19 19 18 18 18 18 17 17 17 17 17 17 17 17 17 17 17 17 17 17 17 17 17 16 16 16 16 16 16 16
26 24 21 19 19 20 20 20 21 20 20 20 20 20 20 20 20 20 19 19 19 18 18 18 18 17 17 17 17 17 17 17 17 17 17 17 17 17 17 17 16 16 16 16 16 16 16 16 16
25 24 21 21 20 19 19 20 22 20 20 20 20 20 20 20 20 20 19 19 18 18 18 17 18 17 17 17 17 17 17 17 17 17 16 16 16 16 16 16 16 16 16 16 16 16 16 16 16

GEFSSGP_850_meantemp_108.txt.gz
Temperature
21 21 20 20 19 19 22 23 24 24 24 25 25 24 23 22 22 21 21 22 21 21 20 20 20 20 20 20 20 20 20 19 19 19 19 19 19 19 19 18 18 18 18 18 18 18 18 18 18
21 21 20 20 19 21 22 24 24 24 24 25 25 24 23 22 22 22 21 21 21 21 20 20 20 20 20 20 20 20 20 19 19 19 19 19 19 18 18 18 18 18 18 18 18 18 18 18 17
21 21 20 18 20 21 23 24 24 25 25 25 24 24 23 22 22 22 22 21 21 21 20 20 20 20 20 20 20 20 20 19 19 19 19 19 18 18 18 18 18 18 18 18 18 18 18 18 17
21 21 21 19 22 22 23 24 24 24 25 25 24 22 22 22 23 22 22 21 21 21 20 20 20 20 20 20 20 19 19 19 19 19 19 18 18 18 18 18 18 18 18 18 18 17 17 17 17
22 21 19 20 21 22 23 25 25 24 24 24 24 22 22 22 23 23 22 21 21 21 20 20 20 20 20 20 19 19 19 19 19 19 18 18 18 18 18 18 18 18 18 18 18 17 17 17 17
22 19 19 20 22 23 24 26 25 24 24 24 23 22 21 22 22 22 22 21 21 21 20 20 20 20 19 19 19 19 19 19 19 18 18 18 18 18 18 18 18 18 18 18 18 18 17 17 17
21 19 20 21 22 23 26 26 25 24 24 24 24 21 20 21 22 22 21 21 20 20 20 19 19 19 19 19 19 19 19 19 19 18 18 18 18 18 18 18 18 18 18 18 18 17 17 17 17
23 19 21 21 22 24 26 26 26 25 24 24 24 22 21 22 21 21 21 20 20 20 20 19 19 19 19 19 19 19 19 18 18 18 18 18 18 18 18 18 18 18 18 18 17 17 17 17 17
23 19 20 22 23 24 26 25 26 26 25 24 23 23 23 22 21 20 20 19 19 19 19 19 19 19 19 19 19 19 18 18 18 18 18 18 18 18 18 18 18 18 18 17 17 17 17 17 17
22 19 21 23 24 25 25 25 25 25 23 23 22 22 22 21 21 20 20 19 19 19 19 19 19 19 19 19 19 18 18 18 18 18 18 18 18 18 18 18 18 18 17 17 17 17 17 17 17
22 21 22 24 25 25 25 25 25 24 23 23 23 22 21 21 20 20 20 19 19 19 18 18 19 19 19 19 18 18 18 18 18 18 18 18 18 18 18 18 18 17 17 17 17 17 17 17 17
22 22 24 25 26 26 25 25 25 24 25 26 25 24 22 21 20 20 20 19 19 19 19 19 19 18 18 18 18 18 18 18 18 18 18 18 18 18 18 18 18 18 17 17 17 17 17 17 17
24 24 25 26 26 26 25 24 24 24 25 25 24 23 22 21 21 20 20 20 19 19 19 19 18 18 18 18 18 18 18 18 18 18 18 18 18 18 18 18 18 18 17 17 17 17 17 17 17
24 24 25 25 26 26 24 24 24 24 24 24 23 22 22 21 21 20 19 19 19 19 19 19 18 18 18 18 18 18 18 18 18 18 18 18 18 18 18 18 18 17 17 17 17 17 17 17 17
24 23 23 25 25 26 25 24 24 24 23 22 22 21 21 21 20 20 20 20 20 20 19 19 18 18 18 18 18 18 18 18 18 18 18 18 18 17 17 18 17 17 17 17 17 17 17 17 17
23 23 23 24 25 25 25 24 23 23 22 21 21 20 20 20 20 20 20 20 20 20 19 19 18 18 18 18 18 18 18 18 18 18 18 18 17 17 17 17 17 17 17 17 17 17 17 17 17
21 22 23 23 24 25 24 23 23 22 22 20 20 20 20 20 20 20 20 20 20 20 19 18 18 18 18 18 18 18 18 18 18 18 18 18 17 17 17 17 17 17 17 17 17 17 17 17 17
22 22 22 22 23 24 23 22 22 22 21 20 20 19 19 20 20 20 20 20 20 19 19 18 18 18 18 17 17 17 17 18 18 18 18 17 17 17 17 17 17 17 17 17 17 17 17 17 17
23 22 21 22 24 23 22 22 21 21 21 20 19 19 19 20 20 20 20 19 19 19 18 18 18 18 17 17 17 17 17 18 18 18 18 17 17 17 17 17 17 17 17 17 17 17 17 17 17
22 22 21 22 23 24 22 22 21 21 21 20 20 19 20 20 19 19 19 19 19 19 18 18 17 17 17 17 18 18 18 18 18 18 17 17 17 17 17 17 17 17 17 17 17 17 17 17 17
22 21 22 22 22 22 23 22 21 21 20 20 20 20 20 20 20 20 19 19 19 18 18 18 18 17 17 17 17 17 17 17 17 17 17 17 17 17 17 17 17 17 17 17 17 17 17 17 17
21 22 22 22 22 20 22 21 21 20 20 19 19 19 19 20 20 20 20 19 19 19 18 18 18 17 17 17 17 17 18 17 18 18 17 17 17 17 17 17 17 17 17 17 17 17 17 17 17
22 23 23 22 21 20 20 20 20 19 20 19 19 19 19 20 20 20 20 20 19 19 18 18 18 18 17 17 17 17 17 18 18 17 17 17 17 17 17 17 17 17 17 17 17 17 17 16 16
23 22 20 18 18 20 21 20 20 19 20 20 19 19 19 19 19 19 19 19 19 19 18 18 18 17 17 17 17 17 17 17 17 17 17 17 17 17 17 16 16 16 16 16 16 16 16 16 16
23 20 19 20 19 19 19 20 19 20 20 19 19 19 19 19 19 19 19 19 19 19 18 18 17 17 17 17 17 17 17 17 17 17 17 17 17 17 17 16 16 16 16 16 16 16 16 16 16
21 20 19 20 20 19 19 19 19 20 20 20 20 19 19 19 19 19 19 19 19 18 18 18 18 17 17 17 17 17 17 17 17 17 17 17 17 17 17 16 16 16 16 16 16 16 16 16 16
21 19 19 18 19 19 19 19 19 20 19 19 19 19 19 19 19 19 19 19 19 18 18 18 18 18 17 17 17 17 17 17 17 17 17 17 17 17 16 16 16 16 16 16 16 16 16 16 16
21 18 17 18 18 20 21 20 19 20 20 18 18 18 19 19 19 19 19 19 19 18 18 18 18 18 17 17 17 17 17 17 17 17 17 16 16 17 16 16 16 16 16 16 16 16 16 16 16
21 20 17 16 17 18 19 20 20 19 19 18 18 19 19 19 20 20 19 19 19 18 18 18 18 17 17 17 17 17 17 16 16 16 16 16 16 16 16 16 16 16 16 16 15 15 15 15 15
22 20 17 19 18 17 18 19 20 19 18 18 18 19 19 19 20 19 19 19 19 18 18 18 17 17 17 17 16 16 16 16 16 16 16 16 16 16 16 16 16 16 16 15 15 15 15 15 15